This is the latest recevied weather packets stored in our database for station/object DL9GRB-13. If no packets are shown the sender has not sent any weather packets the latest 10 day(s).
| Time | Temp. | Humidity | Pressure | Rain* | Wind** | Luminosity | Snow |
|---|---|---|---|---|---|---|---|
| 1777611126 | 4.44° C | 94% | 1028.4 hPa | 0 mm | - | 58 W/m² | - |
| 1777610946 | 3.89° C | 94% | 1028.3 hPa | 0 mm | - | 55 W/m² | - |
| 1777610766 | 3.33° C | 94% | 1028.3 hPa | 0 mm | - | 53 W/m² | - |
| 1777610586 | 3.33° C | 94% | 1028.5 hPa | 0 mm | - | 48 W/m² | - |
| 1777610406 | 3.33° C | 93% | 1028.2 hPa | 0 mm | - | 26 W/m² | - |
| 1777610226 | 2.78° C | 93% | 1028.2 hPa | 0 mm | - | 25 W/m² | - |
| 1777610046 | 2.78° C | 93% | 1028.3 hPa | 0 mm | - | 24 W/m² | - |
| 1777609866 | 2.78° C | 93% | 1028.3 hPa | 0 mm | - | 23 W/m² | - |
| 1777609686 | 2.78° C | 93% | 1028.2 hPa | 0 mm | - | 22 W/m² | - |
| 1777609506 | 2.78° C | 93% | 1028.2 hPa | 0 mm | - | 21 W/m² | - |
| 1777609326 | 2.78° C | 93% | 1028.1 hPa | 0 mm | - | 19 W/m² | - |
| 1777609146 | 2.78° C | 93% | 1028.1 hPa | 0 mm | - | 18 W/m² | - |
| 1777608966 | 2.78° C | 93% | 1028.1 hPa | 0 mm | - | 17 W/m² | - |
| 1777608786 | 2.78° C | 93% | 1028 hPa | 0 mm | - | 16 W/m² | - |
| 1777608606 | 2.78° C | 93% | 1028.2 hPa | 0 mm | - | 15 W/m² | - |
| 1777608426 | 2.78° C | 92% | 1028.2 hPa | 0 mm | - | 14 W/m² | - |
| 1777608246 | 2.78° C | 92% | 1028.2 hPa | 0 mm | - | 12 W/m² | - |
| 1777608066 | 2.78° C | 92% | 1028.2 hPa | 0 mm | - | 11 W/m² | - |
| 1777607886 | 2.78° C | 92% | 1028.2 hPa | 0 mm | - | 10 W/m² | - |
| 1777607706 | 2.78° C | 92% | 1028.2 hPa | 0 mm | - | 9 W/m² | - |
| 1777607526 | 2.78° C | 92% | 1028 hPa | 0 mm | - | 8 W/m² | - |
| 1777607346 | 2.78° C | 92% | 1028.2 hPa | 0 mm | - | 6 W/m² | - |
| 1777607166 | 2.78° C | 92% | 1028.3 hPa | 0 mm | - | 5 W/m² | - |
| 1777606986 | 2.78° C | 92% | 1028.4 hPa | 0 mm | - | 5 W/m² | - |
| 1777606806 | 2.78° C | 92% | 1028 hPa | 0 mm | - | 4 W/m² | - |
* Rain latest hour (hover to see other rain measurements)
** Current wind speed in m/s (hover to see current wind gust speed)